Simultaneous Nadir Overpasses (SNOs) Predictions

Prediction of SNOs between METOP-B and NOAA-19 Satellite Orbit:

Table of predicted SNOs for the next 14.0 days since TLE Epoch: 2/22/2020
Index Date (METOP-B) Time (METOP-B) Lat,Lon (METOP-B) SZA (METOP-B ) Date (NOAA-19) Time (NOAA-19) Lat,Lon (NOAA-19) SZA (NOAA-19 ) Distance(km) Time Diff (sec)
1 03/03/2020 10:04:48 79.83, 49.56 86.82 03/03/2020 10:03:33 79.83, 49.63 86.81 1.40 75
2 03/03/2020 10:55:29 -79.85,-142.94 93.17 03/03/2020 10:54:38 -79.82,-143.02 93.21 3.62 51
3 03/03/2020 11:46:09 79.82, 24.11 86.78 03/03/2020 11:45:33 79.84, 24.03 86.78 2.73 36
4 03/03/2020 12:36:51 -79.81,-168.68 93.26 03/03/2020 12:36:38 -79.83,-168.62 93.24 2.72 13
5 03/03/2020 13:27:31 79.81, -1.34 86.73 03/03/2020 13:27:33 79.82, -1.27 86.75 2.29 2
6 03/03/2020 14:18:12 -79.82, 166.16 93.26 03/03/2020 14:18:38 -79.81, 166.08 93.27 2.15 26
7 03/03/2020 15:08:52 79.82, -26.51 86.73 03/03/2020 15:09:33 79.80, -26.57 86.72 2.52 41
8 03/03/2020 15:59:34 -79.81, 140.71 93.30 03/03/2020 16:00:38 -79.79, 140.78 93.30 2.46 64




NCC Satellite Simultaneous Nadir Overpasses (SNOs) Prediction Service
